Tracking 19145 objects as of 25-Apr-2018
HD Live streaming from Space Station
objects crossing your sky now

FENGYUN 1C DEB

Track FENGYUN 1C DEB now!
10-day predictions


NORAD ID: 35130
Int'l Code: 1999-025DLJ
Perigee: 810.7 km
Apogee: 884.8 km
Inclination: 99.1 °
Period: 101.7 minutes
Semi major axis: 7218 km
RCS: 0.009 m2 (small)
Launch date: May 10, 1999
Source: People's Republic of China (PRC)
Launch site: Taiyaun Space Center, China (TSC)

Note: This is SATELLITE DEBRIS
aabbcc
Your satellite tracking list
Your tracking list is empty




NASA's NSSDC Master Catalog

Two Line Element Set (TLE):
1 35130U 99025DLJ 18114.39411341 +.00001349 +00000-0 +70554-3 0  9999
2 35130 099.0823 169.6610 0051290 240.6959 118.9083 14.15494071250728
Source of the keplerian elements: AFSPC